Powrót do katalogu

SL-8 R/B

AktywnyPO
NORAD 21797·ROCKET BODY·🇷🇺 Russia

Wystrzelony Nov 27, 1991 z Plesetsk Cosmodrome

Loading…

Następne Przeloty (najbliższe 24 godziny)

TLE

ŚwieżeSource: Space-Track

Epoka: Sep 14, 2026, 11:51 UTC

1 21797U 91081B   26257.49443205  .00000131  00000-0  11534-3 0  9990
2 21797  82.9491  73.9476 0037576 348.1585  39.9778 13.77893251748984

Śledź SL-8 R/B w czasie rzeczywistym z AllMySat

Download on the App Store